Location: Altmatt
(47.1333°N, 8.7000°E)
Time: 18:38:01
(UTC+00:00)

Gbstr 26 Del rocket - Pass Details

Date: 13 July 2020
Orbit: 492 x 1264 km, 51.8° (Epoch: 11 August)

Event Time Altitude Azimuth Distance (km) Brightness Sun altitude
Rises 22:04:06 0° 257° (WSW) 2,577 6.4 -18.5°
Reaches altitude 10° 22:06:16 10° 261° (W) 1,685 5.4 -18.6°
Maximum altitude 22:09:56 60° 342° (NNW) 582 3.2 -18.8°
Drops below altitude 10° 22:13:51 10° 63° (ENE) 1,794 5.5 -19.0°
Sets 22:16:14 0° 67° (ENE) 2,765 6.5 -19.2°
